Meteo Giornale » Osservazioni meteo Stati Uniti (USA) » Hazen
ore: 17:55 - Osservazioni Meteo Hazen
Lat. 47° 17' N Lon. 101° 35' W Alt. 553 metri s.l.m.
26 °C
Sereno
Temp. 24 Ore
8 °C
27 °C
Nord-Est
9.3 Km/h
Dew point 9 °C
Umidità 34 %
Visibilità 13 Km
Il sole sorge alle ore 07:05
Il sole tramonta alle ore 20:26
| Data e Ora | Cielo e Fenomeni | T °C | DP °C | Um. % | Pres. hPa | Vis. km | Vento km/h | |
|---|---|---|---|---|---|---|---|---|
| Oggi h: 17:55 | Sereno | 26 | 9 | 34 | 1014 | 13 | NE 9.3 | |
| Oggi h: 17:35 | Sereno | 26 | 9 | 34 | 1014 | 14 | E/NE 7.4 | |
| Oggi h: 17:15 | Sereno | 26 | 8 | 31 | 1014 | 10 | N 0 | |
| Oggi h: 16:55 | Sereno | 26 | 9 | 34 | 1014 | 10 | N 5.5 | |
| Oggi h: 16:35 | Sereno | 26 | 9 | 34 | 1014 | 10 | N 0 | |
| Oggi h: 16:15 | Sereno | 26 | 8 | 31 | 1015 | 10 | N 0 | |
| Oggi h: 15:55 | Sereno | 26 | 8 | 31 | 1015 | 10 | N 0 | |
| Oggi h: 15:35 | Sereno | 26 | 8 | 31 | 1015 | 10 | O 7.4 | |
| Oggi h: 15:15 | Sereno | 26 | 9 | 34 | 1015 | 10 | N 5.5 | |
| Oggi h: 14:55 | Sereno | 26 | 8 | 31 | 1015 | 10 | O 9.3 | |
| Oggi h: 14:35 | Sereno | 26 | 8 | 31 | 1015 | 10 | N 0 | |
| Oggi h: 14:15 | Sereno | 26 | 8 | 31 | 1016 | 10 | N 5.5 | |
| Oggi h: 13:55 | Sereno | 25 | 8 | 33 | 1016 | 10 | N 0 | |
| Oggi h: 13:35 | Sereno | 25 | 8 | 33 | 1016 | 10 | N 0 | |
| Oggi h: 13:15 | Sereno | 25 | 8 | 33 | 1016 | 10 | N 0 | |
| Oggi h: 12:55 | Sereno | 24 | 8 | 35 | 1016 | 10 | N 0 | |
| Oggi h: 12:35 | Sereno | 25 | 8 | 33 | 1016 | 10 | N 0 | |
| Oggi h: 12:15 | Sereno | 25 | 8 | 33 | 1016 | 10 | N 0 | |
| Oggi h: 11:55 | Sereno | 24 | 8 | 35 | 1016 | 10 | N 5.5 | |
| Oggi h: 11:35 | Sereno | 23 | 9 | 40 | 1016 | 10 | N 0 | |
| Oggi h: 11:15 | Sereno | 22 | 10 | 46 | 1016 | 10 | N 0 | |
| Oggi h: 10:55 | Sereno | 20 | 11 | 56 | 1016 | 10 | N 0 | |
| Oggi h: 10:35 | Sereno | 19 | 10 | 55 | 1016 | 10 | N 5.5 | |
| Oggi h: 10:15 | Sereno | 18 | 10 | 59 | 1016 | 10 | O 7.4 | |
| Oggi h: 09:55 | Sereno | 17 | 10 | 63 | 1017 | 10 | O/SO 7.4 | |
| Oggi h: 09:35 | Sereno | 15 | 10 | 72 | 1016 | 10 | N 0 | |
| Oggi h: 09:15 | Sereno | 14 | 10 | 76 | 1016 | 10 | N 0 | |
| Oggi h: 08:55 | Sereno | 13 | 10 | 81 | 1017 | 10 | N 0 | |
| Oggi h: 08:35 | Sereno | 12 | 9 | 81 | 1016 | 10 | N 5.5 | |
| Oggi h: 08:15 | Sereno | 11 | 9 | 87 | 1016 | 10 | O/SO 7.4 | |
| Oggi h: 07:55 | Sereno | 11 | 8 | 81 | 1016 | 10 | SO 7.4 | |
| Oggi h: 07:35 | Sereno | 10 | 8 | 87 | 1016 | 10 | SO 7.4 | |
| Oggi h: 07:15 | Sereno | 9 | 7 | 87 | 1016 | 10 | O/SO 7.4 | |
| Oggi h: 06:55 | Sereno | 8 | 7 | 93 | 1016 | 10 | S/SO 7.4 | |
| Oggi h: 06:35 | Sereno | 9 | 7 | 87 | 1016 | 10 | S/SO 7.4 | |
| Oggi h: 06:15 | Sereno | 10 | 8 | 87 | 1016 | 10 | N 0 | |
| Oggi h: 05:55 | Sereno | 9 | 8 | 93 | 1016 | 10 | S/SO 11.1 | |
| Oggi h: 05:35 | Sereno | 9 | 7 | 87 | 1016 | 10 | S/SO 9.3 | |
| Oggi h: 05:15 | Sereno | 10 | 7 | 81 | 1016 | 10 | N 5.5 | |
| Oggi h: 04:55 | Sereno | 9 | 7 | 87 | 1016 | 10 | N 0 | |
| Oggi h: 04:35 | Sereno | 8 | 7 | 93 | 1015 | 10 | N 0 | |
| Oggi h: 04:15 | Sereno | 10 | 8 | 87 | 1015 | 10 | N 5.5 | |
| Oggi h: 03:55 | Sereno | 10 | 8 | 87 | 1015 | 10 | N 0 | |
| Oggi h: 03:35 | Sereno | 10 | 8 | 87 | 1015 | 10 | S/SO 7.4 | |
| Oggi h: 03:15 | Poco Nuvoloso | 11 | 8 | 81 | 1015 | 10 | N 5.5 | |
| Oggi h: 02:55 | Sereno | 10 | 8 | 87 | 1016 | 10 | N 0 | |
| Oggi h: 02:35 | Sereno | 10 | 8 | 87 | 1016 | 10 | N 0 | |
| Oggi h: 02:15 | Sereno | 10 | 8 | 87 | 1015 | 10 | N 0 | |
| Oggi h: 01:55 | Poco Nuvoloso | 11 | 9 | 87 | 1015 | 10 | N 0 | |
| Oggi h: 01:35 | Sereno | 11 | 8 | 81 | 1015 | 10 | N 0 | |
| Oggi h: 01:15 | Sereno | 12 | 9 | 81 | 1015 | 10 | N 0 | |
| Oggi h: 00:55 | Poco Nuvoloso | 12 | 9 | 81 | 1015 | 10 | S 9.3 | |
| Oggi h: 00:35 | Sereno | 12 | 9 | 81 | 1015 | 10 | S/SE 11.1 | |
| Oggi h: 00:15 | Sereno | 12 | 9 | 81 | 1015 | 10 | S 9.3 | |
| Ieri h: 23:55 | Sereno | 12 | 9 | 81 | 1014 | 10 | S 7.4 | |
| Ieri h: 23:35 | Sereno | 12 | 9 | 81 | 1014 | 10 | SO 7.4 | |
| Ieri h: 23:15 | Sereno | 12 | 9 | 81 | 1014 | 10 | S/SE 9.3 | |
| Ieri h: 22:55 | Sereno | 14 | 10 | 76 | 1014 | 10 | N 0 | |
| Ieri h: 22:35 | Sereno | 15 | 9 | 67 | 1014 | 10 | N 0 | |
| Ieri h: 22:15 | Sereno | 15 | 9 | 67 | 1014 | 10 | S 9.3 | |
| Ieri h: 21:55 | Sereno | 15 | 9 | 67 | 1014 | 10 | SO 7.4 | |
| Ieri h: 21:35 | Sereno | 15 | 9 | 67 | 1013 | 10 | N 5.5 | |
| Ieri h: 21:15 | Sereno | 17 | 9 | 59 | 1012 | 10 | N 0 | |
| Ieri h: 20:55 | Sereno | 19 | 9 | 52 | 1012 | 10 | O/SO 7.4 | |
| Ieri h: 20:35 | Sereno | 21 | 8 | 43 | 1012 | 10 | O 13 | |
| Ieri h: 20:15 | Sereno | 22 | 9 | 43 | 1012 | 10 | O 13 | |
| Ieri h: 19:55 | Sereno | 24 | 8 | 35 | 1011 | 10 | O/NO 16.7 | |
| Ieri h: 19:35 | Sereno | 25 | 7 | 31 | 1011 | 10 | O/NO 20.3 | |
| Ieri h: 19:15 | Sereno | 26 | 6 | 27 | 1011 | 10 | O/NO 29.6 | |
| Ieri h: 18:55 | Sereno | 26 | 7 | 29 | 1011 | 10 | O 25.9 | |
| Ieri h: 18:35 | Sereno | 27 | 8 | 30 | 1011 | 10 | O 24 | |



